FW5236 Weather Reports


Display with metric or nautical units.
time (UTC)temp
F
wind
direction
speed
MPH
gust
MPH
rain 1hr
in
rain 24hr
in
rain mn
in
humidity
%
barometer
mb
20260903103028 47 303 0.0 4.0 0.00 0.34 0.00 90 1013.4
20260903101530 46 250 0.0 2.0 0.00 0.34 0.00 92 1013.3
20260903100108 46 266 0.0 2.0 0.00 0.34 0.00 92 1013.3
20260903094606 47 247 0.0 2.0 0.00 0.34 0.00 92 1013.1
20260903093036 47 226 0.0 2.0 0.00 0.34 0.00 92 1013.2
20260903091529 47 225 1.0 2.0 0.00 0.34 0.00 93 1013.2
20260903090031 48 239 1.0 3.0 0.00 0.34 0.00 93 1013.2
20260903084528 48 225 1.0 3.0 0.00 0.34 0.00 94 1013.0
20260903083032 48 254 1.0 3.0 0.00 0.34 0.00 94 1012.9
20260903081530 48 232 1.0 2.0 0.00 0.34 0.00 95 1012.9
20260903080030 49 239 1.0 4.0 0.00 0.34 0.00 95 1012.9
20260903074532 50 234 1.0 4.0 0.00 0.34 0.00 96 1012.8
20260903071530 50 267 0.0 1.0 0.00 0.34 0.00 95 1012.5
20260903070029 50 264 0.0 5.0 0.00 0.34 0.00 95 1012.4
20260903064530 50 243 0.0 1.0 0.00 0.34 0.34 95 1012.2
20260903063028 50 202 0.0 0.0 0.00 0.34 0.34 94 1012.4
20260903061531 51 202 0.0 0.0 0.00 0.34 0.34 94 1012.3
20260903060031 53 202 0.0 0.0 0.00 0.34 0.34 94 1012.3
20260903054531 54 202 0.0 0.0 0.00 0.34 0.34 95 1012.5
20260903053029 54 202 0.0 1.0 0.00 0.34 0.34 94 1012.6
20260903051532 54 73 0.0 2.0 0.00 0.34 0.34 94 1012.4
20260903050030 54 67 0.0 0.0 0.01 0.34 0.34 94 1012.1
20260903044530 54 67 0.0 0.0 0.03 0.34 0.34 93 1012.2
20260903043030 54 67 0.0 0.0 0.06 0.34 0.34 93 1012.2
20260903041531 54 67 0.0 0.0 0.16 0.34 0.33 92 1011.9
20260903034530 54 23 0.0 3.0 0.28 0.31 0.28 89 1011.6
20260903033031 55 9 0.0 4.0 0.26 0.28 0.18 86 1011.5
20260903031531 58 356 2.0 7.0 0.16 0.18 0.02 82 1011.4
20260903024530 60 328 0.0 3.0 0.00 0.02 0.02 75 1010.3
20260903023029 60 292 1.0 3.0 0.00 0.02 0.02 75 1010.2
20260903020033 0 0 0.0 0.0 0.00 0.02 0.00 100
20260903014531 0 0 0.0 0.0 0.00 0.02 0.00 100
20260903011533 61 260 1.0 4.0 0.00 0.02 0.02 72 1010.3
20260903010147 62 283 2.0 5.0 0.00 0.02 0.02 68 1010.4
20260903004532 62 285 2.0 4.0 0.00 0.02 0.02 68 1010.5
20260903003032 62 288 2.0 5.0 0.00 0.02 0.02 67 1010.4
20260903001529 62 295 2.0 6.0 0.00 0.02 0.02 66 1010.5
20260903000031 62 305 3.0 8.0 0.00 0.02 0.02 65 1010.5
20260902234533 63 316 3.0 5.0 0.00 0.02 0.02 65 1010.6
20260902233039 63 308 2.0 4.0 0.00 0.02 0.02 65 1010.6
20260902231606 63 303 3.0 8.0 0.02 0.02 0.02 64 1010.6
20260902230038 62 281 2.0 5.0 0.02 0.02 0.02 67 1010.5
20260902224528 62 300 1.0 2.0 0.02 0.02 0.02 70 1010.5
20260902223031 61 229 0.0 0.0 0.02 0.02 0.00 74 1010.5
20260902221532 0 0 0.0 0.0 0.00 0.00 0.00 100
20260902214533 0 0 0.0 0.0 0.00 0.00 0.00 100
20260902213032 0 0 0.0 0.0 0.00 0.00 0.00 100
20260902211604 0 0 0.0 0.0 0.00 0.00 0.00 100
20260902210145 61 306 2.0 6.0 0.00 0.00 0.00 65 1011.0
20260902204532 62 314 2.0 5.0 0.00 0.00 0.00 65 1010.7
20260902203030 61 298 2.0 5.0 0.00 0.00 0.00 69 1010.7
20260902201606 60 297 3.0 6.0 0.00 0.00 0.00 68 1010.9
20260902200034 62 313 4.0 14.0 0.00 0.00 0.00 61 1010.9
20260902194530 62 320 5.0 13.0 0.00 0.00 0.00 61 1010.5
20260902193032 68 312 5.0 15.0 0.00 0.00 0.00 49 1010.0
20260902191606 0 0 0.0 0.0 0.00 0.00 0.00 100
20260902190106 0 0 0.0 0.0 0.00 0.00 0.00 100
20260902183032 0 0 0.0 0.0 0.00 0.00 0.00 100
20260902180030 0 0 0.0 0.0 0.00 0.00 0.00 100
20260902174530 73 80 0.0 1.0 0.00 0.00 0.00 46 1010.6
20260902173031 71 131 0.0 1.0 0.00 0.00 0.00 49 1010.7
20260902171529 67 206 0.0 0.0 0.00 0.00 0.00 54 1011.0
20260902170030 0 0 0.0 0.0 0.00 0.00 0.00 100
20260902164529 0 0 0.0 0.0 0.00 0.00 0.00 100
20260902163106 58 225 2.0 2.0 0.00 0.00 0.00 73 1012.0
20260902161531 0 0 0.0 0.0 0.00 0.00 0.00 100
20260902160030 0 0 0.0 0.0 0.00 0.00 0.00 100
20260902150035 52 227 1.0 4.0 0.00 0.00 0.00 84 1012.5
20260902144706 0 0 0.0 0.0 0.00 0.00 0.00 100
20260902141606 48 230 1.0 3.0 0.00 0.00 0.00 88 1012.6
20260902140031 47 231 2.0 4.0 0.00 0.00 0.00 89 1012.6
20260902134604 47 227 3.0 4.0 0.00 0.00 0.00 88 1012.6
20260902133032 48 225 2.0 3.0 0.00 0.00 0.00 88 1012.7
20260902131532 48 221 2.0 3.0 0.00 0.00 0.00 88 1012.8
20260902124529 49 223 1.0 3.0 0.00 0.00 0.00 87 1012.9
20260902123033 50 226 2.0 4.0 0.00 0.00 0.00 87 1012.9
20260902121531 50 228 1.0 4.0 0.00 0.00 0.00 87 1013.0
20260902114604 51 232 1.0 4.0 0.00 0.00 0.00 86 1013.0
20260902113122 51 225 1.0 3.0 0.00 0.00 0.00 86 1013.0
20260902111540 51 225 1.0 3.0 0.00 0.00 0.00 85 1013.1
20260902110039 51 225 2.0 3.0 0.00 0.00 0.00 84 1013.1
20260902104539 52 240 1.0 4.0 0.00 0.00 0.00 83 1012.9